Weather History for KLWD - October, 2010

Change the Weather History Date:

Thursday, October 21, 2010

  Actual Average Record
Temperature  
Mean Temperature 50 °F 51 °F  
Max Temperature 64 °F 62 °F 83 °F (1978)
Min Temperature 36 °F 41 °F 26 °F (1976)
Degree Days  
Heating Degree Days 15 14  
Month to date heating degree days 163 224  
Since 1 July heating degree days 221 324  
Cooling Degree Days 0 0  
Month to date cooling degree days 8 11  
Year to date cooling degree days 1182 944  
Growing Degree Days 2 (Base 50)    
Moisture  
Dew Point 30 °F    
Average Humidity 47    
Maximum Humidity 70    
Minimum Humidity 24    
Precipitation  
Precipitation 0.00 in 0.11 in 1.23 in (2001)
Month to date precipitation T 1.87  
Year to date precipitation 48.12  
Sea Level Pressure  
Sea Level Pressure 30.05 in    
Wind  
Wind Speed 5 mph (North)    
Max Wind Speed 10 mph    
Max Gust Speed 15 mph    
Visibility 10 miles    
Events      
T = Trace of Precipitation, MM = Missing Value Source: NWS Daily Summary

Daily Weather History Graph

Daily Weather History Graph

Search for Another Location

Airport or City:

Trip Planner

Search our weather history database for the weather conditions in past years. The results will help you decide how hot, cold, wet, or windy it might be!

Date:

Astronomy

Oct. 21, 2010 Rise Set
Actual Time 7:33 AM CDT 6:26 PM CDT
Civil Twilight 7:05 AM CDT 6:54 PM CDT
Nautical Twilight 6:33 AM CDT 7:26 PM CDT
Astronomical Twilight 6:01 AM CDT 7:57 PM CDT
Moon 5:27 PM CDT (10/21) 6:13 AM CDT (10/21)
Length of Visible Light 11h 48m
Length of Day
10h 53m
Waxing Gibbous, 98% of the Moon is Illuminated
Oct 21
Waxing Gibbous
Oct 22
Full
Oct 30
Last Quarter
Nov 5
New
Nov 13
First Quarter

Hourly Weather History & Observations

Time (CDT) Temp. Windchill Dew Point Humidity Pressure Visibility Wind Dir Wind Speed Gust Speed Precip Events Conditions
12:53 AM 54.0 °F - 35.1 °F 49% 29.97 in 10.0 mi NNW 6.9 mph - N/A   Clear
1:53 AM 50.0 °F - 36.0 °F 59% 29.99 in 10.0 mi North 6.9 mph - N/A   Clear
2:53 AM 46.9 °F - 35.1 °F 63% 30.00 in 10.0 mi North 6.9 mph - N/A   Clear
3:53 AM 46.0 °F 41.9 °F 34.0 °F 63% 30.01 in 10.0 mi North 8.1 mph - N/A   Clear
4:53 AM 44.1 °F 40.8 °F 33.1 °F 65% 30.01 in 10.0 mi North 5.8 mph - N/A   Clear
5:53 AM 42.1 °F 40.2 °F 32.0 °F 67% 30.04 in 10.0 mi NW 3.5 mph - N/A   Clear
6:53 AM 39.9 °F 35.1 °F 30.9 °F 70% 30.06 in 10.0 mi NW 6.9 mph - N/A   Clear
7:53 AM 41.0 °F 38.0 °F 30.0 °F 65% 30.09 in 10.0 mi NW 4.6 mph - N/A   Clear
8:53 AM 46.9 °F - 32.0 °F 56% 30.11 in 10.0 mi NW 3.5 mph - N/A   Clear
9:53 AM 52.0 °F - 32.0 °F 47% 30.10 in 10.0 mi North 6.9 mph - N/A   Clear
10:53 AM 55.0 °F - 30.0 °F 38% 30.11 in 10.0 mi North 8.1 mph - N/A   Clear
11:53 AM 57.9 °F - 30.0 °F 35% 30.11 in 10.0 mi NE 6.9 mph - N/A   Clear
12:53 PM 60.1 °F - 28.9 °F 31% 30.09 in 10.0 mi NNW 8.1 mph - N/A   Clear
1:53 PM 61.0 °F - 28.9 °F 30% 30.07 in 10.0 mi Variable 4.6 mph - N/A   Clear
2:53 PM 62.1 °F - 26.1 °F 25% 30.06 in 10.0 mi Calm Calm - N/A   Clear
3:53 PM 64.0 °F - 27.0 °F 25% 30.05 in 10.0 mi Calm Calm - N/A   Clear
4:53 PM 62.1 °F - 28.0 °F 28% 30.04 in 10.0 mi Calm Calm - N/A   Clear
5:53 PM 60.1 °F - 28.9 °F 31% 30.04 in 10.0 mi Calm Calm - N/A   Clear
6:53 PM 57.9 °F - 26.1 °F 30% 30.04 in 10.0 mi SE 3.5 mph - N/A   Clear
8:53 PM 55.9 °F - 25.0 °F 30% 30.06 in 10.0 mi ESE 4.6 mph - N/A   Clear
9:53 PM 53.1 °F - 26.1 °F 35% 30.06 in 10.0 mi East 5.8 mph - N/A   Clear
10:53 PM 52.0 °F - 26.1 °F 37% 30.05 in 10.0 mi ESE 4.6 mph - N/A   Clear
11:53 PM 50.0 °F - 27.0 °F 41% 30.05 in 10.0 mi ESE 4.6 mph - N/A   Clear